GW3137 Weather Reports


time (UTC)temp
F
wind
direction
speed
knots
gust
knots
rain 1hr
in
rain 24hr
in
rain mn
in
humidity
%
barometer
mb
20260504220204 81 253 1.7 7.0 0.00 0.00 0.00 32 1010.0
20260504213704 80 195 1.7 7.8 0.00 0.00 0.00 38 1010.1
20260504213204 81 240 2.6 7.0 0.00 0.00 0.00 36 1010.0
20260504210704 79 219 2.6 7.0 0.00 0.00 0.00 39 1010.2
20260504210204 79 270 3.5 7.8 0.00 0.00 0.00 38 1010.2
20260504203704 78 275 1.7 6.1 0.00 0.00 0.00 42 1010.4
20260504203203 78 168 2.6 8.7 0.00 0.00 0.00 41 1010.4
20260504200705 76 228 2.6 7.8 0.00 0.00 0.00 44 1010.3
20260504200204 77 170 1.7 7.8 0.00 0.00 0.00 44 1010.3
20260504193705 75 204 2.6 5.2 0.00 0.00 0.00 46 1010.5
20260504193204 75 172 2.6 10.4 0.00 0.00 0.00 45 1010.5
20260504190704 74 250 2.6 7.0 0.00 0.00 0.00 48 1010.7
20260504190204 74 189 3.5 7.8 0.00 0.00 0.00 49 1010.6
20260504183704 73 189 2.6 7.0 0.00 0.00 0.00 49 1010.8
20260504183205 73 223 2.6 7.8 0.00 0.00 0.00 49 1010.8
20260504180704 73 208 2.6 7.8 0.00 0.00 0.00 49 1010.9
20260504180203 73 254 1.7 7.8 0.00 0.00 0.00 50 1010.9
20260504173705 71 261 1.7 4.3 0.00 0.00 0.00 53 1010.8
20260504173204 71 183 2.6 7.8 0.00 0.00 0.00 54 1010.8
20260504170704 69 177 1.7 6.1 0.00 0.00 0.00 59 1010.8
20260504150705 60 267 0.9 1.7 0.00 0.00 0.00 75 1010.2
20260504150204 60 267 0.9 1.7 0.00 0.00 0.00 75 1010.2
20260504140704 58 71 0.0 0.0 0.00 0.00 0.00 75 1009.8
20260504130704 55 71 0.0 0.0 0.00 0.00 0.00 78 1009.3
20260504130204 55 71 0.0 0.0 0.00 0.00 0.00 78 1009.2
20260504110704 57 71 0.0 0.0 0.00 0.00 0.00 75 1009.1
20260504110204 57 71 0.0 1.7 0.00 0.00 0.00 75 1009.1
20260504100204 58 98 0.0 0.0 0.00 0.00 0.00 75 1009.0
20260504080704 62 66 0.0 0.0 0.00 0.00 0.00 68 1008.9
20260504080204 63 66 0.0 0.9 0.00 0.00 0.00 67 1009.0
20260504070205 64 66 0.0 1.7 0.00 0.00 0.00 62 1009.0
20260504050704 69 24 0.9 2.6 0.00 0.00 0.00 57 1008.9
20260504050204 69 23 0.9 2.6 0.00 0.00 0.00 58 1009.0
20260504043704 71 33 0.9 2.6 0.00 0.00 0.00 55 1009.0
20260504043204 71 14 0.9 2.6 0.00 0.00 0.00 55 1008.9
20260504040703 71 22 1.7 2.6 0.00 0.00 0.00 54 1008.8
20260504040204 71 318 0.9 4.3 0.00 0.00 0.00 54 1008.8
20260504033204 74 356 1.7 6.1 0.00 0.00 0.00 49 1008.6
20260504030704 76 322 1.7 2.6 0.00 0.00 0.00 46 1008.6
20260504030204 76 341 1.7 7.0 0.00 0.00 0.00 44 1008.6
20260504023706 78 326 2.6 7.0 0.00 0.00 0.00 41 1008.5
20260504023204 79 326 0.9 7.8 0.00 0.00 0.00 40 1008.6
20260504020704 80 10 2.6 7.0 0.00 0.00 0.00 39 1008.5
20260504020204 81 9 2.6 7.8 0.00 0.00 0.00 39 1008.6
20260504013705 83 317 3.5 7.8 0.00 0.00 0.00 40 1008.7
20260504013204 83 330 2.6 7.8 0.00 0.00 0.00 39 1008.7
20260504010704 85 282 2.6 7.8 0.00 0.00 0.00 36 1008.8
20260504010204 85 304 1.7 7.0 0.00 0.00 0.00 38 1008.9
20260504003704 85 8 1.7 6.1 0.00 0.00 0.00 38 1009.0
20260504000212 84 248 2.6 0.0 0.00 0.00 0.00 37 1009.4
20260504000205 84 341 2.6 10.4 0.00 0.00 0.00 37 1009.4
20260503233704 84 343 1.7 7.0 0.00 0.00 0.00 40 1009.6
20260503230704 85 342 3.5 7.0 0.00 0.00 0.00 38 1010.0
20260503230204 85 0 1.7 10.4 0.00 0.00 0.00 39 1010.1